THOR ABLESTAR DEB, 350

Orbit data source: Space-Track

THOR ABLESTAR DEB, 350 is space debris in LEO originally from a launch on Thu, 29 Jun 1961 UTC launched from the Air Force Eastern Test Range (AFETR). Debris objects in space refer to the collection of defunct objects orbiting the Earth. Examples of debris include non-operational satellites, rocket bodies, and fragments generated from explosions, collisions, or faulty payload assembly.

Loading next visibility...
THOR ABLESTAR DEB details
Identifier
350, 1961-015DQ
Orbit
LEO
Last TLE update17 hours ago
Origin
Flag of USUSAF SSD (US)
ManufacturerUnknown
MissionSpacecraft
Bus & MotorUnknown
MassUnknown
Launch date (UTC)
1961-06-29 (64 years ago)
Launch vehicleUnknown
Launch site
Air Force Eastern Test Range (AFETR)
Object type
Payload
Rocket body
Debris
Shape & HBRUnknown
Radar Cross SectionMedium (>0.1 m² and <1 m²)

Expand to show TLE details & history

TLE from 17 hours ago
0 THOR ABLESTAR DEB
1 00350U 61015DQ  25014.63513490  .00000634  00000-0  29766-3 0  9990
2 00350  66.9123 118.5470 0126095 185.0034 174.9813 14.22115109289207
Epoch: 2025-01-14T15:14Z
Definitive object data (Epoch: 2025-01-14T15:14:35.655Z)
Latitude0.00003°
Longitude135.55945°
Altitude910.738 km
Speed7.35 km/s
True Right ascension07h 54m 11s
True Declination0° 00' 00"
Sunlit
Object was in full shadow at TLE epoch
Visualization TLE readout
Latitude62.83871°
Longitude-102.0273°
Altitude810.542 km
Speed7.463 km/s
Apparent Right ascension19h 16m 46s
Apparent Declination19° 41' 43"
Sunlit
Object is in daylight
Visualization observer readout
Local Sidereal Time09:16:58
Azimuth31.108° NE
Elevation-24.128°
Doppler factor1
Orbital elements
Apogee altitude907.286 km
Perigee altitude725.843 km
Semi-major axis7,194.701 km
Eccentricity0.0126095
Inclination66.9123°
RAAN118.547°
Arg. of periapsis185.0034°
True anomaly175.10575°
Mean anomaly174.9813°
Eccentric anomaly175.04372°
Mean motion3.55651 °/min
BSTAR0.00029766
Orbital period101.22 mins
Loading maneuver chart data...

THOR ABLESTAR DEB Visibility forecast

Observer location: undefined°, undefined

Span
Click to sort rows by Start time (UTC) header in descending order
Start Az.
Max El. time (UTC)
Max El. Az.
Max El.
End time (UTC)
End Az.
8 mins2025-01-15 10:00:14.684Z268.778° W2025-01-15 10:04:14.684Z312.644° NW19.135°2025-01-15 10:08:14.684Z358.984° N
8 mins2025-01-15 17:08:14.684Z347.816° N2025-01-15 17:11:14.684Z47.568° ENE38.71°2025-01-15 17:16:14.684Z133.991° SE
5 mins2025-01-15 18:53:14.684Z278.883° WNW2025-01-15 18:55:14.684Z250.269° W17.498°2025-01-15 18:58:14.684Z213.133° SW
9 mins2025-01-16 07:53:14.684Z191.496° SSW2025-01-16 07:57:14.684Z122.508° SE42.14°2025-01-16 08:02:14.684Z36.336° NE
|